Meteo orario Alimbay

Oggi, 25 Ottobre, Domenica

Tempo Temperatura Precipitazioni Vento Pressione Umidità
00:00 +8°C° 0.1 mm 5 m/s 737 mm Hg 95%
01:00 +8°C° 0.1 mm 5 m/s 737 mm Hg 95%
02:00 +8°C° 0.1 mm 5 m/s 737 mm Hg 95%
03:00 +8°C° 0.1 mm 4 m/s 738 mm Hg 95%
04:00 +8°C° 0.1 mm 4 m/s 738 mm Hg 96%
05:00 +8°C° 0 mm 4 m/s 738 mm Hg 96%
06:00 +8°C° 0 mm 4 m/s 738 mm Hg 96%
07:00 +8°C° 0 mm 4 m/s 738 mm Hg 96%
08:00 +8°C° 0 mm 5 m/s 738 mm Hg 94%
09:00 +9°C° 0 mm 5 m/s 738 mm Hg 93%
10:00 +9°C° 0 mm 5 m/s 738 mm Hg 91%
11:00 +9°C° 0.1 mm 5 m/s 738 mm Hg 90%
12:00 +9°C° 0.1 mm 5 m/s 737 mm Hg 90%
13:00 +10°C° 0.1 mm 5 m/s 737 mm Hg 89%
14:00 +10°C° 0.1 mm 5 m/s 736 mm Hg 88%
15:00 +10°C° 0.1 mm 5 m/s 736 mm Hg 88%
16:00 +11°C° 0.1 mm 4 m/s 736 mm Hg 87%
17:00 +10°C° 0.4 mm 5 m/s 735 mm Hg 88%
18:00 +10°C° 0.4 mm 6 m/s 735 mm Hg 90%
19:00 +10°C° 0.4 mm 7 m/s 734 mm Hg 91%
20:00 +10°C° 0.2 mm 7 m/s 734 mm Hg 89%
21:00 +10°C° 0.2 mm 7 m/s 733 mm Hg 87%
22:00 +11°C° 0.2 mm 8 m/s 733 mm Hg 84%
23:00 +10°C° 0.1 mm 8 m/s 732 mm Hg 85%

Domani, 26 Ottobre, Lunedi

Tempo Temperatura Precipitazioni Vento Pressione Umidità
00:00 +10°C° 0.1 mm 8 m/s 731 mm Hg 86%
01:00 +10°C° 0.1 mm 8 m/s 731 mm Hg 87%
02:00 +10°C° 0.2 mm 8 m/s 730 mm Hg 88%
03:00 +10°C° 0.2 mm 8 m/s 730 mm Hg 88%
04:00 +10°C° 0.2 mm 8 m/s 729 mm Hg 88%
05:00 +10°C° 2.4 mm 8 m/s 729 mm Hg 87%
06:00 +9°C° 2.4 mm 8 m/s 729 mm Hg 85%
07:00 +7°C° 2.4 mm 8 m/s 729 mm Hg 83%
08:00 +7°C° 0 mm 9 m/s 730 mm Hg 78%
09:00 +7°C° 0 mm 10 m/s 731 mm Hg 72%
10:00 +6°C° 0 mm 11 m/s 731 mm Hg 67%
11:00 +6°C° 0 mm 11 m/s 732 mm Hg 65%
12:00 +4°C° 0 mm 11 m/s 733 mm Hg 63%
13:00 +4°C° 0 mm 11 m/s 733 mm Hg 62%
14:00 +3°C° 0 mm 10 m/s 734 mm Hg 59%
15:00 +3°C° 0 mm 10 m/s 734 mm Hg 57%
16:00 +2°C° 0 mm 10 m/s 734 mm Hg 54%
17:00 +2°C° 0 mm 9 m/s 735 mm Hg 57%
18:00 +1°C° 0 mm 8 m/s 735 mm Hg 60%
19:00 0°C° 0 mm 7 m/s 736 mm Hg 63%
20:00 0°C° 0 mm 7 m/s 736 mm Hg 65%
21:00 -1°C° 0 mm 7 m/s 736 mm Hg 66%
22:00 -1°C° 0 mm 7 m/s 736 mm Hg 68%
23:00 -2°C° 0 mm 8 m/s 736 mm Hg 75%

Dopodomani, 27 Ottobre, Martedi

Tempo Temperatura Precipitazioni Vento Pressione Umidità
00:00 -2°C° 0 mm 8 m/s 736 mm Hg 82%
01:00 -4°C° 0 mm 8 m/s 735 mm Hg 89%
02:00 -4°C° 0.2 mm 8 m/s 736 mm Hg 82%
03:00 -4°C° 0.2 mm 8 m/s 736 mm Hg 75%
04:00 -5°C° 0.2 mm 8 m/s 736 mm Hg 69%
05:00 -5°C° 0 mm 8 m/s 736 mm Hg 69%
06:00 -5°C° 0 mm 9 m/s 736 mm Hg 69%
07:00 -5°C° 0 mm 9 m/s 737 mm Hg 70%
08:00 -4°C° 0 mm 9 m/s 737 mm Hg 66%
09:00 -3°C° 0 mm 10 m/s 737 mm Hg 63%
10:00 -2°C° 0 mm 10 m/s 738 mm Hg 60%
11:00 -2°C° 0 mm 10 m/s 738 mm Hg 59%
12:00 0°C° 0 mm 9 m/s 739 mm Hg 57%
13:00 +1°C° 0 mm 9 m/s 739 mm Hg 56%
14:00 0°C° 0 mm 9 m/s 739 mm Hg 57%
15:00 0°C° 0 mm 8 m/s 740 mm Hg 58%
16:00 0°C° 0 mm 7 m/s 740 mm Hg 60%
17:00 0°C° 0 mm 7 m/s 741 mm Hg 63%
18:00 -1°C° 0 mm 7 m/s 742 mm Hg 66%
19:00 -1°C° 0 mm 7 m/s 743 mm Hg 69%
20:00 -2°C° 0 mm 7 m/s 743 mm Hg 71%
21:00 -2°C° 0 mm 6 m/s 744 mm Hg 72%
22:00 -3°C° 0 mm 6 m/s 744 mm Hg 74%
23:00 -2°C° 0 mm 5 m/s 744 mm Hg 75%

28 Ottobre, Mercoledi

Tempo Temperatura Precipitazioni Vento Pressione Umidità
00:00 -4°C° 0 mm 5 m/s 745 mm Hg 76%
01:00 -4°C° 0 mm 5 m/s 745 mm Hg 77%
02:00 -3°C° 0 mm 4 m/s 746 mm Hg 77%
03:00 -3°C° 0 mm 4 m/s 746 mm Hg 77%
04:00 -3°C° 0 mm 4 m/s 747 mm Hg 77%
05:00 -4°C° 0 mm 4 m/s 747 mm Hg 77%
06:00 -4°C° 0 mm 4 m/s 748 mm Hg 77%
07:00 -4°C° 0 mm 4 m/s 748 mm Hg 78%
08:00 -3°C° 0 mm 4 m/s 749 mm Hg 70%
09:00 -2°C° 0 mm 5 m/s 749 mm Hg 62%
10:00 -1°C° 0 mm 5 m/s 749 mm Hg 55%
11:00 0°C° 0 mm 5 m/s 750 mm Hg 51%
12:00 0°C° 0 mm 5 m/s 750 mm Hg 48%
13:00 +1°C° 0 mm 5 m/s 750 mm Hg 44%
14:00 +1°C° 0 mm 4 m/s 751 mm Hg 45%
15:00 0°C° 0 mm 4 m/s 751 mm Hg 46%
16:00 +1°C° 0 mm 3 m/s 751 mm Hg 48%
17:00 0°C° 0 mm 3 m/s 752 mm Hg 50%
18:00 -1°C° 0 mm 3 m/s 752 mm Hg 53%
19:00 -2°C° 0 mm 3 m/s 753 mm Hg 55%
20:00 -2°C° 0 mm 3 m/s 753 mm Hg 56%
21:00 -2°C° 0 mm 3 m/s 753 mm Hg 56%
22:00 -3°C° 0 mm 2 m/s 754 mm Hg 56%
23:00 -3°C° 0 mm 2 m/s 754 mm Hg 55%

29 Ottobre, Giovedi

Tempo Temperatura Precipitazioni Vento Pressione Umidità
00:00 -3°C° 0 mm 2 m/s 754 mm Hg 55%
01:00 -2°C° 0 mm 1 m/s 754 mm Hg 54%
02:00 -2°C° 0 mm 1 m/s 754 mm Hg 53%
03:00 -2°C° 0 mm 1 m/s 755 mm Hg 52%
04:00 -2°C° 0 mm 1 m/s 755 mm Hg 51%
05:00 -2°C° 0 mm 1 m/s 755 mm Hg 50%
06:00 -2°C° 0 mm 1 m/s 756 mm Hg 50%
07:00 -3°C° 0 mm 0 m/s 756 mm Hg 49%
08:00 -2°C° 0 mm 0 m/s 756 mm Hg 43%
09:00 -1°C° 0 mm 0 m/s 756 mm Hg 36%
10:00 0°C° 0 mm 0 m/s 756 mm Hg 30%
11:00 +2°C° 0 mm 1 m/s 756 mm Hg 30%
12:00 +2°C° 0 mm 2 m/s 756 mm Hg 30%
13:00 +3°C° 0 mm 2 m/s 756 mm Hg 30%
14:00 +3°C° 0 mm 2 m/s 756 mm Hg 34%
15:00 +3°C° 0 mm 2 m/s 756 mm Hg 38%
16:00 +3°C° 0 mm 2 m/s 756 mm Hg 42%
17:00 +1°C° 0 mm 3 m/s 756 mm Hg 46%
18:00 0°C° 0 mm 3 m/s 756 mm Hg 50%
19:00 0°C° 0 mm 3 m/s 756 mm Hg 53%
20:00 0°C° 0 mm 3 m/s 756 mm Hg 55%
21:00 0°C° 0 mm 3 m/s 756 mm Hg 56%
22:00 0°C° 0 mm 3 m/s 756 mm Hg 58%
23:00 -1°C° 0 mm 3 m/s 756 mm Hg 58%

30 Ottobre, Venerdi

Tempo Temperatura Precipitazioni Vento Pressione Umidità
00:00 -1°C° 0 mm 3 m/s 756 mm Hg 58%
01:00 -1°C° 0 mm 3 m/s 756 mm Hg 57%
02:00 -1°C° 0 mm 3 m/s 756 mm Hg 57%
03:00 -1°C° 0 mm 3 m/s 756 mm Hg 57%
04:00 -1°C° 0 mm 3 m/s 756 mm Hg 57%
05:00 -1°C° 0 mm 3 m/s 756 mm Hg 56%
06:00 -1°C° 0 mm 3 m/s 756 mm Hg 56%
07:00 -1°C° 0 mm 3 m/s 756 mm Hg 55%
08:00 0°C° 0 mm 3 m/s 756 mm Hg 50%
09:00 +2°C° 0 mm 3 m/s 756 mm Hg 45%
10:00 +3°C° 0 mm 4 m/s 756 mm Hg 41%
11:00 +4°C° 0 mm 4 m/s 756 mm Hg 38%
12:00 +5°C° 0 mm 4 m/s 755 mm Hg 35%
13:00 +7°C° 0 mm 3 m/s 755 mm Hg 33%
14:00 +7°C° 0 mm 3 m/s 755 mm Hg 34%
15:00 +5°C° 0 mm 3 m/s 755 mm Hg 35%
16:00 +6°C° 0 mm 2 m/s 755 mm Hg 37%
17:00 +5°C° 0 mm 2 m/s 755 mm Hg 38%
18:00 +4°C° 0 mm 2 m/s 755 mm Hg 40%
19:00 +3°C° 0 mm 2 m/s 755 mm Hg 41%
20:00 +3°C° 0 mm 2 m/s 755 mm Hg 41%
21:00 +3°C° 0 mm 2 m/s 754 mm Hg 40%
22:00 +2°C° 0 mm 2 m/s 754 mm Hg 40%
23:00 +2°C° 0 mm 2 m/s 754 mm Hg 39%
Mostrare altro

Abbiamo bisogno del tuo consenso

Meteoprog e i nostri fornitori di servizi possono memorizzare e accedere a dati personali come cookie, identificatori di dispositivi o altre tecnologie simili sul tuo dispositivo e possono elaborare tali dati per personalizzare i contenuti e gli annunci, nonché fornire funzionalità dei social media e analizzarne il traffico.

  • Archiviare e/o accedere alle informazioni sul tuo dispositivo

    Cookie, identificatori di dispositivi o altre informazioni possono essere memorizzati o resi accessibili sul tuo dispositivo per le finalità sopra indicate.

  • Annunci e contenuti personalizzati, misurazione di annunci e contenuti, approfondimenti sul pubblico e sviluppo di prodotti

    Gli annunci e i contenuti possono essere personalizzati in base a un profilo. È possibile aggiungere più dati per personalizzare meglio annunci e contenuti. È possibile misurare il rendimento degli annunci e dei contenuti. È possibile ricavare informazioni sul pubblico che ha visto gli annunci e i contenuti. Tali dati possono essere utilizzati per sviluppare o migliorare l'esperienza, i sistemi e il software dell'utente.

Cliccando su “Accetto”, acconsenti all'uso di cookie, identificatori di dispositivo, web beacon o altre tecnologie simili. Puoi modificare le impostazioni nel browser del tuo dispositivo.

Per determinati scopi, è possibile fare affidamento su interessi legali, piuttosto che sul consenso. Puoi approfondire questo argomento consultando la nostra Informativa sulla privacy e sui cookie.